Date String (YYYY-MM-DD hh:mm:ss) UTC,Instrument flags,Ambient pressure (hPa),Sample flow (lpm),Bypass flow (lpm),Sample temperature (°C),Ambient temperature (°C),ASC tube jacket temperature (°C),LED temperature (°C),Box temperature (°C),Sample RH (%),Span deviation,Mass concentration (μg/m³),Mass concentration (μg/m³),Mass concentration (μg/m³)
DateTimeUTC,F1_M11,P_M11,Q1_M11,Q2_M11,T1_M11,T2_M11,T3_M11,T4_M11,T5_M11,U1_M11,ZSPAN_M11,X2_M11,X0_M11,X1_M11
2023-04-27 01:00:00,,0829.7,5.01,0.00,23.3,22.7,00.0,31.3,24.9,24.9,0000.0,0003.33,0006.25,0003.08
2023-04-27 01:01:00,,0829.6,4.98,0.00,23.3,22.7,00.0,31.4,25.0,24.0,0000.0,0003.31,0006.25,0003.04
2023-04-27 01:02:00,,0829.6,4.99,0.00,23.3,22.8,00.0,31.4,25.0,23.4,0000.0,0003.28,0006.29,0003.03
2023-04-27 01:03:00,,0829.6,5.00,0.00,23.4,22.8,00.0,31.5,25.0,23.9,0000.0,0003.27,0006.24,0003.01
2023-04-27 01:04:00,,0829.7,5.00,0.00,23.4,22.8,00.0,31.5,25.1,24.0,0000.0,0003.28,0005.75,0003.02
2023-04-27 01:05:00,,0829.7,5.00,0.00,23.4,22.8,00.0,31.5,25.1,23.5,0000.0,0003.28,0004.92,0003.03
2023-04-27 01:06:00,,0829.7,5.01,0.00,23.5,22.8,00.0,31.6,25.1,23.8,0000.0,0003.27,0004.92,0003.04
2023-04-27 01:07:00,,0829.7,5.00,0.00,23.5,22.8,00.0,31.6,25.1,24.2,0000.0,0003.27,0004.94,0003.03
2023-04-27 01:08:00,,0829.7,5.01,0.00,23.5,22.9,00.0,31.6,25.2,24.4,0000.0,0003.29,0005.00,0003.04
2023-04-27 01:09:00,,0829.7,5.00,0.00,23.6,22.9,00.0,31.7,25.2,23.6,0000.0,0003.31,0005.07,0003.07
2023-04-27 01:10:00,,0829.7,5.00,0.00,23.6,22.9,00.0,31.7,25.2,23.8,0000.0,0003.33,0005.12,0003.09
2023-04-27 01:11:00,,0829.7,5.00,0.00,23.6,23.0,00.0,31.8,25.3,23.5,0000.0,0003.33,0005.11,0003.09
2023-04-27 01:12:00,,0829.7,4.99,0.00,23.7,23.0,00.0,31.8,25.3,23.2,0000.0,0003.32,0005.13,0003.09
2023-04-27 01:13:00,,0829.7,5.00,0.00,23.7,23.1,00.0,31.8,25.3,23.4,0000.0,0003.33,0004.97,0003.10
2023-04-27 01:14:00,,0829.7,5.01,0.00,23.7,23.1,00.0,31.9,25.4,22.6,0000.0,0003.34,0005.20,0003.10
2023-04-27 01:15:00,,0829.7,5.00,0.00,23.8,23.1,00.0,31.9,25.4,23.0,0000.0,0003.36,0005.40,0003.10
2023-04-27 01:16:00,,0829.7,5.00,0.00,23.8,23.2,00.0,31.9,25.5,22.2,0000.0,0003.34,0005.32,0003.10
2023-04-27 01:17:00,,0829.7,4.99,0.00,23.8,23.2,00.0,32.0,25.5,22.4,0000.0,0003.35,0005.19,0003.10
2023-04-27 01:18:00,,0829.7,5.01,0.00,23.9,23.2,00.0,32.0,25.5,22.9,0000.0,0003.34,0005.14,0003.10
2023-04-27 01:19:00,,0829.7,5.01,0.00,23.9,23.2,00.0,32.0,25.5,22.8,0000.0,0003.34,0005.15,0003.10
2023-04-27 01:20:00,,0829.7,4.99,0.00,23.9,23.3,00.0,32.1,25.5,22.8,0000.0,0003.34,0005.18,0003.07
2023-04-27 01:21:00,,0829.7,4.99,0.00,24.0,23.3,00.0,32.1,25.6,23.5,0000.0,0003.32,0005.16,0003.00
2023-04-27 01:22:00,,0829.7,5.00,0.00,24.0,23.3,00.0,32.1,25.6,23.6,0000.0,0003.27,0005.03,0002.92
2023-04-27 01:23:00,,0829.7,5.01,0.00,24.0,23.3,00.0,32.2,25.7,23.5,0000.0,0003.23,0005.16,0002.84
2023-04-27 01:24:00,,0829.7,4.99,0.00,24.0,23.3,00.0,32.2,25.7,23.8,0000.0,0003.18,0005.18,0002.73
2023-04-27 01:25:00,,0829.7,5.00,0.00,24.1,23.3,00.0,32.2,25.7,23.4,0000.0,0003.12,0004.94,0002.64
2023-04-27 01:26:00,,0829.7,5.00,0.00,24.1,23.4,00.0,32.3,25.7,23.0,0000.0,0003.03,0004.81,0002.53
2023-04-27 01:27:00,,0829.7,5.00,0.00,24.1,23.4,00.0,32.3,25.7,23.0,0000.0,0002.93,0005.20,0002.42
2023-04-27 01:28:00,,0829.7,5.01,0.00,24.1,23.4,00.0,32.3,25.8,22.9,0000.0,0002.79,0005.01,0002.32
2023-04-27 01:29:00,,0829.7,5.00,0.00,24.2,23.5,00.0,32.3,25.8,22.6,0000.0,0002.72,0005.25,0002.24
2023-04-27 01:30:00,,0829.7,4.98,0.00,24.2,23.5,00.0,32.4,25.9,22.8,0000.0,0002.64,0005.13,0002.19
2023-04-27 01:31:00,,0829.7,5.00,0.00,24.2,23.5,00.0,32.4,25.9,23.0,0000.0,0002.52,0004.87,0002.12
2023-04-27 01:32:00,,0829.7,5.01,0.00,24.2,23.5,00.0,32.4,25.9,22.9,0000.0,0002.48,0004.80,0002.11
2023-04-27 01:33:00,,0829.7,5.00,0.00,24.3,23.5,00.0,32.5,25.9,23.4,0000.0,0002.44,0005.07,0002.11
2023-04-27 01:34:00,,0829.7,5.01,0.00,24.3,23.5,00.0,32.5,26.0,23.8,0000.0,0002.44,0004.91,0002.11
2023-04-27 01:35:00,,0829.7,5.00,0.00,24.3,23.5,00.0,32.5,26.0,23.6,0000.0,0002.43,0004.66,0002.11
2023-04-27 01:36:00,,0829.7,4.99,0.00,24.3,23.6,00.0,32.5,26.0,23.5,0000.0,0002.40,0004.59,0002.10
2023-04-27 01:37:00,,0829.7,5.01,0.00,24.4,23.6,00.0,32.6,26.0,23.7,0000.0,0002.40,0005.06,0002.10
2023-04-27 01:38:00,,0829.7,5.01,0.00,24.4,23.6,00.0,32.6,26.1,23.5,0000.0,0002.37,0004.79,0002.07
2023-04-27 01:39:00,,0829.7,4.99,0.00,24.4,23.6,00.0,32.6,26.1,23.4,0000.0,0002.37,0004.81,0002.05
2023-04-27 01:40:00,,0829.7,4.99,0.00,24.4,23.6,00.0,32.6,26.1,23.3,0000.0,0002.35,0004.56,0002.01
2023-04-27 01:41:00,,0829.7,5.01,0.00,24.5,23.6,00.0,32.7,26.1,23.1,0000.0,0002.30,0004.48,0001.96
2023-04-27 01:42:00,,0829.7,5.00,0.00,24.5,23.7,00.0,32.7,26.2,22.9,0000.0,0002.27,0004.70,0001.91
2023-04-27 01:43:00,,0829.7,4.99,0.00,24.5,23.7,00.0,32.7,26.2,22.6,0000.0,0002.19,0004.62,0001.85
2023-04-27 01:44:00,,0829.7,5.01,0.00,24.5,23.6,00.0,32.7,26.2,22.5,0000.0,0002.14,0004.18,0001.80
2023-04-27 01:45:00,,0829.7,5.01,0.00,24.5,23.6,00.0,32.8,26.2,22.5,0000.0,0002.08,0004.15,0001.75
2023-04-27 01:46:00,,0829.7,4.98,0.00,24.6,23.7,00.0,32.8,26.2,22.7,0000.0,0002.06,0004.15,0001.72
2023-04-27 01:47:00,,0829.7,5.01,0.00,24.6,23.7,00.0,32.8,26.2,22.8,0000.0,0002.20,0004.34,0001.82
2023-04-27 01:48:00,,0829.7,5.01,0.00,24.6,23.7,00.0,32.8,26.3,22.9,0000.0,0002.52,0004.14,0002.11
2023-04-27 01:49:00,,0829.7,5.00,0.00,24.6,23.7,00.0,32.8,26.3,22.9,0000.0,0002.84,0004.42,0002.38
2023-04-27 01:50:00,,0829.7,4.99,0.00,24.6,23.7,00.0,32.9,26.3,22.9,0000.0,0003.13,0004.83,0002.64
2023-04-27 01:51:00,,0829.7,5.01,0.00,24.6,23.8,00.0,32.9,26.3,22.7,0000.0,0003.31,0005.17,0002.96
2023-04-27 01:52:00,,0829.7,5.01,0.00,24.7,23.8,00.0,32.9,26.3,22.6,0000.0,0003.49,0005.47,0003.20
2023-04-27 01:53:00,,0829.7,5.00,0.00,24.7,23.8,00.0,32.9,26.4,22.5,0000.0,0003.69,0005.60,0003.40
2023-04-27 01:54:00,,0829.7,5.00,0.00,24.7,23.8,00.0,32.9,26.4,22.4,0000.0,0003.93,0006.40,0003.61
2023-04-27 01:55:00,,0829.8,5.00,0.00,24.7,23.8,00.0,33.0,26.4,22.4,0000.0,0004.17,0007.03,0003.82
2023-04-27 01:56:00,,0829.8,4.99,0.00,24.8,23.9,00.0,33.0,26.4,22.4,0000.0,0004.38,0007.36,0004.03
2023-04-27 01:57:00,,0829.8,5.00,0.00,24.8,23.9,00.0,33.0,26.4,22.4,0000.0,0004.57,0007.55,0004.23
2023-04-27 01:58:00,,0829.8,5.00,0.00,24.8,23.9,00.0,33.0,26.4,22.3,0000.1,0004.68,0007.64,0004.35
2023-04-27 01:59:00,,0829.8,5.01,0.00,24.8,23.9,00.0,33.0,26.5,22.3,-000.0,0004.70,0007.62,0004.39
